Карточка аэропорта ULOO

Внимание!
Информация на этой странице в стадии наполнения.
Если вы не увидели какой-то информации, или заметили неточность - пожалуйста сообщите нам!
Спасибо!
Команда RU-STAFF
Название аэропортаПсков (Кресты)
Название аэропорта (англ.)Pskov (Kresty)
Превышение47 ft. (14.3 m.)
Координаты57°46.914', 28°23.652'
Высота перехода1000m
Эшелон переходаFL50-FL70
Коды ответчика1000
Зона ОрВДСанкт-Петербург РПИ (ULLL)
Данные METARULOO 131830Z 06003MPS 9999 FEW042 23/18 Q1010 R01/090058 NOSIG RMK QFE753
Проноз погоды (TAF)ULOO 131657Z 1318/1403 11003MPS 6000 SCT016 TEMPO 1318/1401 13006G13MPS 3100 -TSRA BKN011 BKN016CB
NOTAMshow/hide NOTAM
AWOS   TABLE

Информация о ВПП

ВПП Длина ВПП (м.) Покрытие Курс ВПП Частота ILS
012524Асфальтобетон9 
192524Асфальтобетон189 

Диспетчерские позиции


Сценарии



Спутниковое изображение